Terminal Aerodrome Forecast
Issued by NWS

Home | Current Version | Previous Version | Text Only | Print | Product List | Glossary On
Versions: 1 2 3 4 5 6 7 8 9 10 11 12 13 14 15 16 17 18 19 20 21 22 23 24 25
000
FTUS41 KBGM 040103 AAA
TAFITH
TAF AMD
KITH 040103Z 0401/0424 32010KT P6SM BKN025 OVC040
     FM040500 33007KT P6SM OVC025
     FM041500 32005KT P6SM OVC035
     FM042000 VRB05KT P6SM BKN120=

USA.gov is the U.S. government's official web portal to all federal, state and local government web resources and services.